SWA3107 KAUS-KMIA

Flight info

Callsign SWA3107
Flight time N/A
Altitude 37000
Route ILEXY4 ZENZI DAS LLA LEV Y290 DOWRY FROGZ5
Aircraft B738/M-SADE2E3GIJ4RWZ/LB1D1

Departure

Time 2026-05-05 05:57
Airport Austin Bergstrom International Airport (KAUS)

Arrival

Time N/A
Airport Miami International Airport (KMIA)
Time Latitude Longitude Altitude Speed Heading
2026-05-05 05:29 30.20171 -97.66460 499 ft 0 kts 354°
2026-05-05 05:41 30.20160 -97.66460 499 ft 2 kts 353°
2026-05-05 05:42 30.20145 -97.66457 498 ft 2 kts 354°
2026-05-05 05:42 30.20130 -97.66456 498 ft 2 kts 354°
2026-05-05 05:42 30.20119 -97.66454 498 ft 2 kts 348°
2026-05-05 05:42 30.20105 -97.66445 498 ft 2 kts 316°
2026-05-05 05:43 30.20095 -97.66431 497 ft 2 kts 290°
2026-05-05 05:43 30.20093 -97.66417 497 ft 0 kts 271°
2026-05-05 05:43 30.20093 -97.66409 497 ft 0 kts 268°
2026-05-05 05:44 30.20093 -97.66410 497 ft 0 kts 267°
2026-05-05 05:45 30.20093 -97.66419 497 ft 1 kts 266°
2026-05-05 05:45 30.20092 -97.66433 497 ft 1 kts 266°
2026-05-05 05:45 30.20092 -97.66447 498 ft 2 kts 269°
2026-05-05 05:46 30.20091 -97.66479 498 ft 4 kts 268°
2026-05-05 05:46 30.20086 -97.66520 499 ft 5 kts 253°
2026-05-05 05:46 30.20076 -97.66559 500 ft 4 kts 252°
2026-05-05 05:46 30.20065 -97.66609 500 ft 8 kts 262°
2026-05-05 05:47 30.20055 -97.66669 500 ft 6 kts 239°
2026-05-05 05:47 30.20015 -97.66687 499 ft 6 kts 181°
2026-05-05 05:47 30.19964 -97.66686 498 ft 8 kts 178°
2026-05-05 05:47 30.19912 -97.66711 497 ft 8 kts 233°
2026-05-05 05:48 30.19904 -97.66767 497 ft 5 kts 272°
2026-05-05 05:48 30.19904 -97.66816 498 ft 7 kts 268°
2026-05-05 05:48 30.19902 -97.66879 500 ft 8 kts 266°
2026-05-05 05:48 30.19900 -97.66966 500 ft 11 kts 269°
2026-05-05 05:49 30.19899 -97.67046 500 ft 9 kts 269°
2026-05-05 05:49 30.19898 -97.67136 500 ft 13 kts 268°
2026-05-05 05:49 30.19894 -97.67252 502 ft 13 kts 266°
2026-05-05 05:49 30.19918 -97.67330 503 ft 9 kts 333°
2026-05-05 05:50 30.19976 -97.67334 505 ft 7 kts
2026-05-05 05:50 30.20030 -97.67334 505 ft 9 kts 358°
2026-05-05 05:50 30.20104 -97.67337 505 ft 12 kts 358°
2026-05-05 05:50 30.20198 -97.67339 506 ft 16 kts
2026-05-05 05:51 30.20309 -97.67342 508 ft 16 kts 357°
2026-05-05 05:51 30.20407 -97.67345 510 ft 13 kts 359°
2026-05-05 05:51 30.20493 -97.67346 512 ft 11 kts 358°
2026-05-05 05:51 30.20587 -97.67350 513 ft 15 kts 358°
2026-05-05 05:52 30.20707 -97.67367 515 ft 19 kts 345°
2026-05-05 05:52 30.20842 -97.67410 518 ft 20 kts 345°
2026-05-05 05:52 30.20966 -97.67448 520 ft 17 kts 345°
2026-05-05 05:52 30.21070 -97.67481 523 ft 14 kts 344°
2026-05-05 05:53 30.21149 -97.67506 527 ft 10 kts 345°
2026-05-05 05:53 30.21215 -97.67526 529 ft 10 kts 345°
2026-05-05 05:53 30.21292 -97.67551 531 ft 10 kts 338°
2026-05-05 05:53 30.21340 -97.67598 532 ft 8 kts 299°
2026-05-05 05:54 30.21349 -97.67648 533 ft 5 kts 269°
2026-05-05 05:54 30.21349 -97.67677 534 ft 2 kts 269°
2026-05-05 05:54 30.21348 -97.67696 534 ft 3 kts 268°
2026-05-05 05:54 30.21347 -97.67731 535 ft 4 kts 268°
2026-05-05 05:55 30.21347 -97.67780 536 ft 7 kts 271°
2026-05-05 05:55 30.21348 -97.67840 537 ft 6 kts 270°
2026-05-05 05:55 30.21348 -97.67886 537 ft 5 kts 270°
2026-05-05 05:55 30.21342 -97.67928 537 ft 4 kts 230°
2026-05-05 05:56 30.21313 -97.67934 537 ft 4 kts 177°
2026-05-05 05:56 30.21214 -97.67929 536 ft 41 kts 178°
2026-05-05 05:56 30.20652 -97.67918 523 ft 118 kts 178°
2026-05-05 05:56 30.19634 -97.67889 575 ft 171 kts 179°
2026-05-05 05:57 30.18475 -97.67868 1453 ft 165 kts 180°
2026-05-05 05:57 30.17388 -97.67834 2335 ft 155 kts 178°
2026-05-05 05:57 30.16360 -97.67399 2756 ft 177 kts 146°
2026-05-05 05:57 30.15695 -97.66133 3047 ft 212 kts 108°
2026-05-05 05:58 30.15808 -97.64480 3320 ft 245 kts 73°
2026-05-05 05:58 30.16555 -97.62855 3690 ft 265 kts 61°
2026-05-05 05:58 30.17481 -97.61137 4173 ft 278 kts 60°
2026-05-05 05:58 30.18450 -97.59222 4641 ft 293 kts 63°
2026-05-05 05:59 30.19380 -97.57248 5362 ft 297 kts 63°
2026-05-05 05:59 30.20302 -97.55221 6120 ft 299 kts 63°
2026-05-05 05:59 30.21243 -97.53130 6801 ft 305 kts 62°
2026-05-05 05:59 30.22179 -97.51049 7546 ft 307 kts 61°
2026-05-05 06:00 30.23109 -97.48985 8238 ft 312 kts 61°
2026-05-05 06:00 30.24070 -97.46854 8984 ft 314 kts 60°
2026-05-05 06:00 30.25032 -97.44722 9724 ft 317 kts 60°
2026-05-05 06:00 30.26012 -97.42552 10436 ft 323 kts 59°
2026-05-05 06:01 30.27037 -97.40285 10873 ft 339 kts 59°
2026-05-05 06:01 30.28115 -97.37900 11293 ft 355 kts 59°
2026-05-05 06:01 30.29233 -97.35424 11695 ft 371 kts 59°
2026-05-05 06:01 30.30445 -97.32736 12117 ft 385 kts 60°
2026-05-05 06:02 30.31681 -97.29987 12737 ft 393 kts 59°
2026-05-05 06:02 30.32928 -97.27206 13494 ft 396 kts 59°
2026-05-05 06:02 30.34196 -97.24374 14185 ft 401 kts 60°
2026-05-05 06:02 30.35260 -97.21393 14828 ft 412 kts 70°
2026-05-05 06:03 30.35759 -97.18131 15541 ft 421 kts 84°
2026-05-05 06:03 30.35783 -97.14719 16121 ft 431 kts 90°
2026-05-05 06:03 30.35629 -97.11282 16802 ft 435 kts 92°
2026-05-05 06:03 30.35400 -97.07725 17449 ft 441 kts 92°
2026-05-05 06:04 30.35153 -97.04172 18043 ft 447 kts 92°